• Join FlightAware (Why Join?)
  • Login
  • US Flag GB Flag 
12:23 EDT


 

Airport Tracker/Info


-or-


 

Live Flight TrackerFlight Track Log ✈ EJA831 ✈ 23-Apr-2013 ✈ KJQF - KEYF

Flight Track Log - Related Links

Times and Time Zones

All times are in EDT time to prevent confusion due to time zone crossing. See the EJA831 flight status page for this flight to view local times or setup timezone preferences in your user account.

Time Position Orientation Groundspeed Altitude Reporting Facility
EDT Latitude Longitude Course Direction KTS MPH feet Rate Location/Type
12:37 35.4014 -80.7061 11° North 178 205 1,500  Level FAA TRACON SMA TRACON (SMA)
12:37 35.4208 -80.7014 11° North 187 215 2,500 2,520 Climbing FAA TRACON SMA TRACON (SMA)
12:38 35.4378 -80.6964 14° North 196 226 3,200 2,100 Climbing FAA TRACON SMA TRACON (SMA)
12:38 35.4556 -80.6900 16° North 210 242 3,900 2,340 Climbing FAA TRACON SMA TRACON (SMA)
12:39 35.4686 -80.6683 53° Northeast 204 235 4,800 1,620 Climbing FAA TRACON SMA TRACON (SMA)
12:39 35.4636 -80.6469 106° East 205 236 5,000 300 Climbing FAA TRACON SMA TRACON (SMA)
12:39 35.4472 -80.6261 134° Southeast 211 243 5,000  Level FAA TRACON SMA TRACON (SMA)
12:40 35.4339 -80.6103 136° Southeast 214 246 5,000 600 Level FAA TRACON SMA TRACON (SMA)
12:40 35.4208 -80.5944 135° Southeast 212 244 5,400 1,680 Climbing FAA TRACON SMA TRACON (SMA)
12:40 35.4081 -80.5792 136° Southeast 211 243 6,100 2,520 Climbing FAA TRACON SMA TRACON (SMA)
12:40 35.3897 -80.5572 136° Southeast 257 296 7,100 3,000 Climbing FAA TRACON SMA TRACON (SMA)
12:41 35.3733 -80.5372 135° Southeast 271 312 8,100 2,580 Climbing FAA TRACON SMA TRACON (SMA)
12:41 35.3583 -80.5172 133° Southeast 281 323 8,900 2,700 Climbing FAA TRACON SMA TRACON (SMA)
12:41 35.3325 -80.4872 137° Southeast 314 361 9,900 2,520 Climbing FAA TRACON SMA TRACON (SMA)
12:42 35.3131 -80.4628 134° Southeast 333 383 10,600 2,100 Climbing FAA TRACON SMA TRACON (SMA)
12:42 35.2936 -80.4378 134° Southeast 328 377 11,300 1,800 Climbing FAA TRACON SMA TRACON (SMA)
12:42 35.2686 -80.4061 134° Southeast 333 383 11,800 1,020 Climbing FAA TRACON SMA TRACON (SMA)
12:43 35.2489 -80.3808 134° Southeast 333 383 12,000 300 Climbing FAA TRACON SMA TRACON (SMA)
12:43 35.2292 -80.3550 133° Southeast 334 384 12,000  Level FAA TRACON SMA TRACON (SMA)
12:44 35.2039 -80.3219 133° Southeast 344 396 12,000  Level FAA TRACON SMA TRACON (SMA)
12:44 35.1856 -80.2961 131° Southeast 346 398 12,000  Level FAA TRACON SMA TRACON (SMA)
12:44 35.1628 -80.2678 135° Southeast 353 406 12,000  Level FAA TRACON SMA TRACON (SMA)
12:45 35.1369 -80.2339 133° Southeast 352 405 12,000  Level FAA TRACON SMA TRACON (SMA)
12:45 35.1172 -80.2075 132° Southeast 346 398 12,000  Level FAA TRACON SMA TRACON (SMA)
12:45 35.0981 -80.1817 132° Southeast 340 391 12,000  Level FAA TRACON SMA TRACON (SMA)
12:46 35.0736 -80.1494 133° Southeast 337 388 12,000  Level FAA TRACON SMA TRACON (SMA)
12:46 35.0544 -80.1231 132° Southeast 337 388 12,000  Level FAA TRACON SMA TRACON (SMA)
12:46 35.0350 -80.0967 132° Southeast 340 391 12,000  Level FAA TRACON SMA TRACON (SMA)
12:47 35.0117 -80.0644 131° Southeast 344 396 12,000  Level FAA TRACON SMA TRACON (SMA)
12:47 34.9894 -80.0358 133° Southeast 348 400 12,000  Level FAA TRACON SMA TRACON (SMA)
12:47 34.9694 -80.0083 132° Southeast 351 404 12,000  Level FAA TRACON SMA TRACON (SMA)
12:48 34.9581 -79.9886 125° Southeast 353 406 12,000  Level FAA TRACON SMA TRACON (SMA)
12:48 34.9581 -79.9886 192° South 353 406 12,000  Level FAA TRACON SMA TRACON (SMA)
12:49 34.9122 -79.8394 111° Southeast 344 396 12,000  Level Washington Center
12:50 34.8886 -79.7344 105° East 352 405 12,000  Level Washington Center
12:51 34.8575 -79.6089 107° East 352 405 12,000 -300 Level Washington Center
12:52 34.8300 -79.4936 106° East 352 405 11,400 -540 Descending Washington Center
12:53 34.8003 -79.3833 108° East 352 405 11,000 -960 Descending Washington Center
12:54 34.7744 -79.2761 106° East 341 392 9,500 -1,380 Descending Washington Center
12:55 34.7503 -79.1764 106° East 318 366 8,300 -1,500 Descending Washington Center
12:56 34.7300 -79.0869 105° East 279 321 6,600 -1,500 Descending Washington Center
12:57 34.7075 -79.0000 107° East 268 308 5,300 -900 Descending Washington Center
12:58 34.6783 -78.9256 115° Southeast 249 287 4,900 -720 Descending Washington Center
12:59 34.6344 -78.8558 127° Southeast 254 292 3,900 -900 Descending Washington Center
13:00 34.5881 -78.7883 130° Southeast 261 300 3,200 -420 Descending Washington Center
13:01 34.5419 -78.7233 131° Southeast 266 306 3,100 -120 Descending Washington Center